[[{"header":{"parameterUnit":"m.s-1","parameterCategory":1,"la1":30.2991,"la2":30.254,"lo1":-89.0895,"lo2":-89.0444,"dy":0.0017,"dx":0.0017,"nx":28,"ny":28,"refTime":"2023-08-26T21:00:00:Z","depth":0,"parameterNumber":2,"parameterNumberName":"U-component_of_WINDS"},"data":[0,0,0,0,0,0,0,0,0,0,0,0,0,0,0,0,0,0,0,0,0,0,0,0,0,0,0,0,0,0,0,0,0,0,0,0,0,0,0,0,0,0,0,0,0,0,0,0,0,0,0,0,0,0,0,0,0,0,1.7165,1.7165,0,1.7145,1.7145,1.7144,1.7094,1.7093,1.7092,1.7091,1.7069,1.707,1.707,0,0,0,0,0,0,0,0,0,0,0,0,0,1.7162,1.7162,1.7165,1.7165,1.7165,1.7145,1.7145,1.7144,1.7094,1.7093,1.7091,1.709,1.7069,1.707,1.707,0,0,0,0,0,0,0,0,0,0,0,0,0,1.7154,1.7162,1.7165,1.7137,1.7134,1.7145,1.7145,1.7144,1.7094,1.7093,1.7091,1.709,1.7069,1.7069,1.707,1.7106,0,0,1.7072,1.7072,0,0,0,0,0,0,0,0,1.7155,1.7155,1.7142,1.7139,1.7136,1.712,1.7135,1.7131,1.7095,1.711,1.7091,1.7089,1.7087,1.7086,1.7086,1.7105,1.7104,1.7072,1.7072,1.7073,1.7073,0,0,0,0,0,0,0,1.7155,1.7155,1.7157,1.7141,1.7138,1.7126,1.7123,1.7134,1.7108,1.7108,1.7104,1.7103,1.7086,1.7086,1.7085,1.7104,1.7072,1.7073,1.7073,1.7073,1.7153,1.7155,0,0,0,0,0,0,1.716,1.7156,1.7158,1.7156,1.7142,1.7127,1.7124,1.7127,1.7107,1.7103,1.7104,1.71,1.7085,1.7085,1.7084,1.7126,1.7073,1.7073,1.7074,1.7152,1.7154,1.7156,0,0,0,0,0,0,1.716,1.7161,1.7159,1.7155,1.7154,1.7129,1.7133,1.7127,1.7127,1.7104,1.7099,1.7109,1.7084,1.7083,1.7102,1.7125,1.7074,1.7074,1.715,1.7152,1.7155,1.721,0,0,0,0,0,0,1.716,1.7161,1.7174,1.7156,1.7154,1.7176,1.7134,1.7128,1.7129,1.7124,1.7108,1.7103,1.7083,1.7101,1.7102,1.7125,1.7075,1.7147,1.7151,1.7154,1.7206,1.7214,1.7222,0,0,0,0,0,1.716,1.719,1.7175,1.7175,1.717,1.7177,1.7177,1.7152,1.7131,1.7144,1.713,1.7104,1.7122,1.7103,1.7104,1.7127,1.7146,1.715,1.7154,1.7203,1.7213,1.7221,0,0,0,0,0,0,1.721,1.7187,1.717,1.7194,1.7188,1.7169,1.7184,1.7163,1.7163,1.7158,1.7128,1.7125,1.7148,1.7139,1.7118,1.7162,1.713,1.7134,1.7167,1.7176,1.7184,1.7186,1.7075,0,0,0,0,0,1.7224,1.7232,1.7211,1.7235,1.7233,1.721,1.7212,1.7194,1.7186,1.7183,1.717,1.7164,1.7168,1.7172,1.7174,1.7205,1.7202,1.7222,1.7229,1.7236,1.724,1.7257,1.7266,1.7169,1.7169,1.7169,0,0,1.7253,1.7241,1.7247,1.7244,1.7238,1.7247,1.7207,1.7218,1.7225,1.7185,1.7202,1.7192,1.7183,1.7208,1.7219,1.7202,1.7266,1.7241,1.7246,1.7247,1.7262,1.7272,1.728,1.7171,1.7171,1.717,0,0,1.731,1.7301,1.7321,1.7316,1.7306,1.7291,1.7296,1.728,1.7273,1.7289,1.726,1.7268,1.7275,1.7271,1.727,1.7329,1.7305,1.733,1.737,1.7387,1.7395,1.7402,1.7424,1.7432,1.7334,1.7335,1.7335,0,1.7346,1.7359,1.7333,1.7347,1.7348,1.7312,1.7333,1.7329,1.7321,1.7322,1.7304,1.7315,1.7306,1.733,1.7345,1.7345,1.735,1.7332,1.7396,1.7403,1.7408,1.7429,1.7438,1.7338,1.7337,1.7337,1.7337,0,1.7406,1.7415,1.7432,1.7427,1.7429,1.7446,1.7424,1.7429,1.7412,1.7399,1.7417,1.7406,1.7407,1.7411,1.7394,1.7434,1.7424,1.7402,1.7368,1.7421,1.7441,1.7448,1.7342,1.7341,1.734,1.7339,0,0,1.7492,1.7474,1.7481,1.7479,1.7467,1.7474,1.749,1.7492,1.7498,1.7494,1.7508,1.7517,1.7496,1.7495,1.7477,1.7492,1.7541,1.7468,1.7467,1.7483,1.7587,1.7605,1.7614,1.7526,1.7528,1.7529,1.7588,0,1.7547,1.7573,1.7552,1.7583,1.7592,1.756,1.7574,1.757,1.7559,1.7565,1.7553,1.756,1.7532,1.7531,1.7545,1.7533,1.7562,1.7528,1.7539,1.754,1.7543,1.7624,1.7642,1.7699,1.7595,1.7596,1.7597,0,1.7613,1.7614,1.7646,1.7635,1.7638,1.7651,1.7652,1.7659,1.7653,1.7644,1.7645,1.7623,1.7639,1.7607,1.763,1.7607,1.7611,1.7606,1.7607,1.7607,1.7572,1.7627,1.7716,1.7725,1.7609,1.7608,1.7607,0,1.7675,1.7684,1.7705,1.7704,1.7691,1.7701,1.7696,1.7689,1.7692,1.7693,1.7695,1.7698,1.7699,1.7702,1.7683,1.7661,1.7708,1.7674,1.7702,1.7703,1.7713,1.7713,1.7804,1.7715,1.7715,1.7715,1.7714,0,1.7738,1.776,1.7733,1.7745,1.7769,1.7745,1.7769,1.776,1.7755,1.7766,1.7738,1.775,1.7723,1.7732,1.7717,1.7738,1.7739,1.7733,1.7729,1.7736,1.7737,1.7738,1.7733,1.7717,1.7716,1.7716,1.7715,0,1.7811,1.7793,1.7814,1.7801,1.7798,1.7816,1.7805,1.7817,1.7805,1.782,1.7822,1.7803,1.7812,1.7793,1.7799,1.7789,1.7821,1.781,1.7823,1.782,1.7849,1.7847,1.7945,1.7957,1.7859,1.786,1.7861,0,1.7853,1.7868,1.7857,1.7863,1.786,1.787,1.7874,1.7851,1.7856,1.7852,1.7865,1.7872,1.7876,1.7893,1.788,1.7885,1.7875,1.7909,1.7875,1.7883,1.7877,1.7876,1.7879,1.7916,1.7917,1.7918,1.7919,0,1.7929,1.7921,1.7927,1.7931,1.7936,1.7938,1.7938,1.7945,1.7921,1.7928,1.7938,1.7941,1.7949,1.7957,1.796,1.7955,1.7934,1.793,1.7937,1.7944,1.7951,1.7949,1.7842,1.7927,1.7926,1.7926,1.7925,1.7925,1.7988,1.8002,1.7997,1.8005,1.8003,1.8004,1.8016,1.8006,1.8014,1.8018,1.8005,1.8018,1.8014,1.8015,1.8013,1.8024,1.8009,1.8018,1.8021,1.8024,1.8029,1.795,1.8024,1.8024,1.8023,1.8023,1.8023,0,1.8065,1.806,1.8069,1.807,1.8077,1.8057,1.8057,1.8064,1.8077,1.8075,1.8081,1.8093,1.8101,1.809,1.8096,1.8107,1.8097,1.8109,1.8108,1.8108,1.8042,1.8036,1.8117,1.8117,1.8117,1.8117,1.8117,1.8117,1.8105,1.8127,1.8118,1.814,1.8136,1.8149,1.8151,1.8152,1.8151,1.8166,1.8173,1.8166,1.8161,1.8167,1.8174,1.817,1.8174,1.819,1.8183,1.8122,1.8112,1.8104,1.8098,1.8191,1.8191,1.8249,1.825,1.825]},{"header":{"parameterUnit":"m.s-1","parameterCategory":1,"la1":30.2991,"la2":30.254,"lo1":-89.0895,"lo2":-89.0444,"dy":0.0017,"dx":0.0017,"nx":28,"ny":28,"refTime":"2023-08-26T21:00:00:Z","depth":0,"parameterNumber":3,"parameterNumberName":"V-component_of_WINDS"},"data":[0,0,0,0,0,0,0,0,0,0,0,0,0,0,0,0,0,0,0,0,0,0,0,0,0,0,0,0,0,0,0,0,0,0,0,0,0,0,0,0,0,0,0,0,0,0,0,0,0,0,0,0,0,0,0,0,0,0,-3.4546,-3.4545,0,-3.4501,-3.45,-3.45,-3.4464,-3.4463,-3.4463,-3.4463,-3.4413,-3.4412,-3.4411,0,0,0,0,0,0,0,0,0,0,0,0,0,-3.4599,-3.4598,-3.4546,-3.4545,-3.4545,-3.4501,-3.45,-3.4499,-3.4464,-3.4463,-3.4463,-3.4462,-3.4413,-3.4412,-3.441,0,0,0,0,0,0,0,0,0,0,0,0,0,-3.4567,-3.4598,-3.4546,-3.4522,-3.4519,-3.4501,-3.45,-3.4499,-3.4464,-3.4463,-3.4463,-3.4462,-3.4413,-3.4412,-3.441,-3.4412,0,0,-3.4406,-3.4405,0,0,0,0,0,0,0,0,-3.4569,-3.4565,-3.4526,-3.4523,-3.452,-3.4487,-3.45,-3.447,-3.4464,-3.4485,-3.4463,-3.4462,-3.4438,-3.4434,-3.4427,-3.4409,-3.4407,-3.4406,-3.4405,-3.4404,-3.4404,0,0,0,0,0,0,0,-3.4571,-3.4567,-3.4528,-3.4525,-3.4522,-3.4512,-3.4507,-3.4494,-3.4464,-3.4483,-3.448,-3.4475,-3.4436,-3.4428,-3.4425,-3.4406,-3.4406,-3.4404,-3.4403,-3.4403,-3.4391,-3.4391,0,0,0,0,0,0,-3.4577,-3.4569,-3.4529,-3.4526,-3.4544,-3.4512,-3.4506,-3.4498,-3.4464,-3.4459,-3.4476,-3.4474,-3.4431,-3.4427,-3.4423,-3.4424,-3.4404,-3.4403,-3.4402,-3.439,-3.4391,-3.4391,0,0,0,0,0,0,-3.4579,-3.4574,-3.4531,-3.4547,-3.4541,-3.4511,-3.4503,-3.4498,-3.449,-3.4459,-3.4454,-3.4474,-3.443,-3.4425,-3.4416,-3.4422,-3.4402,-3.4401,-3.4389,-3.439,-3.4391,-3.4425,0,0,0,0,0,0,-3.458,-3.4575,-3.4575,-3.4547,-3.454,-3.4525,-3.4503,-3.4497,-3.4488,-3.4485,-3.4456,-3.445,-3.443,-3.4418,-3.4414,-3.442,-3.4399,-3.4389,-3.439,-3.4391,-3.4424,-3.4427,-3.4431,0,0,0,0,0,-3.4582,-3.4585,-3.4575,-3.4571,-3.454,-3.4525,-3.4521,-3.4498,-3.4488,-3.4489,-3.447,-3.4451,-3.4422,-3.4417,-3.4413,-3.4418,-3.4388,-3.4389,-3.4391,-3.4422,-3.4427,-3.4431,0,0,0,0,0,0,-3.4612,-3.4581,-3.457,-3.4564,-3.4548,-3.4519,-3.4518,-3.4503,-3.4488,-3.4486,-3.4457,-3.4451,-3.4445,-3.443,-3.4425,-3.4419,-3.4403,-3.4403,-3.4428,-3.4432,-3.4436,-3.444,-3.4398,0,0,0,0,0,-3.4619,-3.461,-3.4583,-3.458,-3.4573,-3.4547,-3.454,-3.4524,-3.4506,-3.4498,-3.4478,-3.446,-3.4447,-3.4439,-3.4425,-3.4422,-3.4416,-3.4423,-3.4427,-3.443,-3.443,-3.443,-3.4433,-3.4396,-3.4396,-3.4396,0,0,-3.4631,-3.4613,-3.4608,-3.4586,-3.4571,-3.4563,-3.4541,-3.4533,-3.4526,-3.4496,-3.4487,-3.4472,-3.445,-3.4444,-3.444,-3.4432,-3.444,-3.4431,-3.4434,-3.4433,-3.4431,-3.4435,-3.4438,-3.4397,-3.4396,-3.4396,0,0,-3.4649,-3.4634,-3.4631,-3.4618,-3.4598,-3.4581,-3.4581,-3.4555,-3.4545,-3.4535,-3.4514,-3.4505,-3.4483,-3.4469,-3.4459,-3.4476,-3.4459,-3.4472,-3.449,-3.449,-3.4493,-3.4495,-3.4503,-3.4506,-3.4473,-3.4473,-3.4473,0,-3.4666,-3.4653,-3.4631,-3.4625,-3.4616,-3.4592,-3.4589,-3.4577,-3.4552,-3.4547,-3.4538,-3.4512,-3.4495,-3.4486,-3.4491,-3.4483,-3.4482,-3.4475,-3.4494,-3.4497,-3.4499,-3.4506,-3.4508,-3.4475,-3.4474,-3.4474,-3.4474,0,-3.4677,-3.4668,-3.4669,-3.4648,-3.4639,-3.4635,-3.4612,-3.4606,-3.4592,-3.4577,-3.4568,-3.4548,-3.4531,-3.4528,-3.4512,-3.4518,-3.4514,-3.45,-3.4484,-3.4505,-3.4511,-3.4513,-3.4477,-3.4477,-3.4476,-3.4476,0,0,-3.471,-3.468,-3.4681,-3.4673,-3.465,-3.4642,-3.4638,-3.4623,-3.4619,-3.4603,-3.4599,-3.4582,-3.4571,-3.456,-3.4543,-3.4543,-3.456,-3.4529,-3.4529,-3.4537,-3.4567,-3.4578,-3.4581,-3.4549,-3.4549,-3.455,-3.4569,0,-3.4725,-3.4716,-3.4698,-3.4694,-3.4687,-3.4665,-3.4661,-3.4647,-3.4633,-3.4625,-3.4609,-3.4598,-3.4583,-3.4577,-3.4575,-3.4558,-3.4566,-3.4556,-3.4545,-3.4545,-3.4552,-3.4584,-3.4595,-3.4614,-3.4571,-3.4572,-3.4572,0,-3.4741,-3.473,-3.4727,-3.4707,-3.4703,-3.47,-3.4687,-3.4679,-3.4663,-3.4653,-3.4643,-3.4625,-3.462,-3.4605,-3.4597,-3.4592,-3.4586,-3.4577,-3.4577,-3.4575,-3.456,-3.4584,-3.4619,-3.4623,-3.4575,-3.4575,-3.4575,0,-3.4767,-3.4751,-3.4748,-3.4741,-3.4718,-3.4717,-3.4707,-3.469,-3.4684,-3.4671,-3.4667,-3.4654,-3.4647,-3.4637,-3.4617,-3.4608,-3.4612,-3.4596,-3.4604,-3.4605,-3.4606,-3.4606,-3.4642,-3.4602,-3.4601,-3.4601,-3.4601,0,-3.4786,-3.4785,-3.476,-3.4758,-3.4757,-3.4736,-3.4736,-3.4723,-3.471,-3.4705,-3.4684,-3.468,-3.4654,-3.4647,-3.4632,-3.4629,-3.4625,-3.4617,-3.4613,-3.462,-3.4621,-3.4615,-3.4614,-3.4602,-3.4602,-3.4602,-3.4602,0,-3.4815,-3.4798,-3.4793,-3.4773,-3.4768,-3.4768,-3.4751,-3.4748,-3.4734,-3.4729,-3.4727,-3.4705,-3.4696,-3.4676,-3.466,-3.465,-3.4652,-3.4643,-3.4658,-3.4655,-3.4666,-3.4665,-3.4699,-3.4704,-3.466,-3.4661,-3.4661,0,-3.4828,-3.4828,-3.4809,-3.4805,-3.4797,-3.4791,-3.4785,-3.4765,-3.4759,-3.4743,-3.4743,-3.4733,-3.4724,-3.4711,-3.4693,-3.4683,-3.4675,-3.4688,-3.4673,-3.468,-3.4676,-3.4677,-3.4678,-3.4691,-3.4691,-3.4692,-3.4692,0,-3.4854,-3.4847,-3.484,-3.4831,-3.4825,-3.4816,-3.4806,-3.4804,-3.4782,-3.4777,-3.4769,-3.4762,-3.4749,-3.474,-3.4727,-3.4716,-3.4701,-3.4697,-3.4699,-3.4705,-3.4714,-3.4711,-3.4667,-3.4696,-3.4696,-3.4696,-3.4695,-3.4695,-3.4876,-3.4876,-3.4863,-3.4857,-3.4848,-3.484,-3.4838,-3.4825,-3.4819,-3.4807,-3.4796,-3.479,-3.4776,-3.4758,-3.4748,-3.4743,-3.4735,-3.4737,-3.4738,-3.4739,-3.4742,-3.4715,-3.4741,-3.474,-3.474,-3.474,-3.474,0,-3.4902,-3.4894,-3.4889,-3.4877,-3.4872,-3.486,-3.485,-3.4846,-3.4842,-3.4831,-3.4824,-3.4816,-3.4808,-3.4791,-3.4781,-3.4781,-3.4774,-3.4779,-3.4779,-3.4777,-3.4749,-3.4749,-3.4785,-3.4785,-3.4785,-3.4785,-3.4785,-3.4785,-3.4915,-3.4915,-3.4906,-3.4902,-3.4893,-3.4888,-3.4883,-3.4876,-3.4868,-3.4861,-3.4855,-3.4845,-3.4832,-3.4822,-3.4815,-3.481,-3.4808,-3.4816,-3.4809,-3.4783,-3.4779,-3.4775,-3.4775,-3.4815,-3.4815,-3.4838,-3.4838,-3.4838]}]]